TIME,DELAY(SENSOR),PRES,OXYGEN,RAWTEMP,T(OPTODE),TCPHASE,FLUOR,BETA(BETA700),BETA(BETA412),BETA(BETA440),CDOM,C(CSC),ED(ED412.40),ED(ED444.00),ED(ED489.70),ED(ED554.30),LU(LU411.80),LU(LU443.40),LU(LU489.60),LU(LU554.10),COMP,TILTX,TILTY,CHECK
1340509737,5809,901.7199707031250000,43.6582489013671900,663.0139770507812000,4.5286979675292970,54.4905509948730500,53,101,86,80,82,15392,2147761280,2147420013,2148003291,2147875081,2147640128,2147064749,2148258733,2147198537,2477,4,14,58595
1340513333,5804,978.7100219726562000,46.4097518920898440,669.0283813476562000,4.3302860260009770,54.1588401794433600,53,99,87,80,82,15391,2147760073,2147420571,2148008539,2147876681,2147642066,2147062784,2148260571,2147199835,3390,4,14,30523
1340516933,5808,984.3900146484375000,46.7800407409668000,670.0706176757812000,4.2958641052246090,54.1251411437988300,53,99,87,80,81,15393,2147757878,2147417773,2148007643,2147872310,2147644150,2147063012,2148264448,2147196955,216,4,14,49214
1340520533,5804,993.1699829101562000,46.2992782592773440,670.7147827148438000,4.2745800018310550,54.1961784362793000,53,98,87,83,83,15392,2147761216,2147417865,2148006902,2147874157,2147640731,2147070144,2148264411,2147199186,200,4,13,24005
1340524133,5808,987.1400146484375000,46.9937095642089840,672.2760009765625000,4.2229819297790530,54.1221694946289060,52,100,88,80,83,15388,2147757312,2147421147,2148008155,2147873828,2147644269,2147064054,2148262720,2147202386,3543,4,14,42422
1340527733,5812,989.2000122070312000,47.3673286437988300,673.2479858398438000,4.1908421516418460,54.0754203796386700,53,99,89,80,82,15388,2147760521,2147418678,2148008502,2147873161,2147643666,2147059702,2148259684,2147196370,262,4,13,28673
1340531333,5807,983.1300048828125000,47.8665695190429700,674.9702758789062000,4.1338667869567870,54.0290489196777340,53,101,89,79,83,15387,2147758052,2147420580,2148006162,2147871890,2147646765,2147060864,2148264621,2147198226,629,4,13,7973
1340534933,5811,985.8400268554688000,48.2476005554199200,675.8696289062500000,4.1041049957275390,53.9875411987304700,53,98,88,78,81,15383,2147759195,2147419008,2148007570,2147876708,2147642907,2147058066,2148258148,2147199168,3417,4,13,12910
1340538533,5808,992.0700073242188000,48.0060806274414060,674.8032226562500000,4.1394000053405760,54.0085411071777340,53,101,90,80,82,15385,2147760393,2147418194,2148006564,2147873289,2147644288,2147058907,2148262573,2147198811,63,4,13,57766
1340542133,5809,990.9400024414062000,47.7039489746093750,674.9293212890625000,4.1352248191833500,54.0482292175293000,52,99,89,79,82,15385,2147759945,2147421632,2148008246,2147874313,2147645056,2147057499,2148259684,2147198893,466,4,13,19629
1340545733,5814,996.0200195312500000,47.5058097839355500,674.3181762695312000,4.1554450988769530,54.0748291015625000,53,98,87,79,81,15386,2147757732,2147418870,2148006994,2147877970,2147643209,2147059181,2148257984,2147199643,61,5,13,12420
1340549333,5809,994.5300292968750000,47.1870613098144500,674.4064941406250000,4.1525230407714840,54.1160087585449200,53,99,88,78,82,15378,2147759862,2147419675,2148007213,2147873344,2147643346,2147063616,2148260827,2147195931,37,4,13,11020
1340552933,5808,1002.9899902343750000,47.0317802429199200,673.9229125976562000,4.1685218811035160,54.1366691589355500,52,100,87,80,83,15357,2147758336,2147420608,2148007067,2147874861,2147642121,2147071744,2148258322,2147195492,3457,4,14,8702
1340556533,5808,1012.0200195312500000,46.5861892700195300,671.9680786132812000,4.2331600189208980,54.1755409240722660,52,99,89,79,82,15350,2147760758,2147417444,2148008466,2147871515,2147642624,2147059382,2148262464,2147199250,479,4,13,14425
1340560133,5810,1016.2100219726562000,46.1670913696289060,671.1882934570312000,4.2589359283447270,54.2250900268554700,53,101,89,79,82,15352,2147759762,2147420041,2148006729,2147875419,2147642322,2147057334,2148257398,2147200475,837,4,14,47156
1340563733,5803,1012.5599975585938000,45.2736015319824200,669.9783935546875000,4.2989120483398440,54.3373985290527340,52,99,85,80,81,15341,2147759506,2147420260,2148010907,2147874752,2147640630,2147061787,2148261403,2147199771,781,4,14,45141
1340567333,5808,1002.6799926757812000,45.8813018798828100,672.2379150390625000,4.2242431640625000,54.2752990722656250,52,99,86,79,82,15349,2147760182,2147422637,2148006564,2147875748,2147642633,2147062052,2148260516,2147196425,339,4,13,20281
1340570933,5807,991.1699829101562000,46.9100112915039060,674.2756958007812000,4.1568508148193360,54.1576194763183600,52,100,90,79,83,15349,2147757458,2147419382,2148011126,2147873490,2147642386,2147062701,2148266221,2147200118,3583,4,14,34413
1340574533,5804,984.7600097656250000,47.6798591613769500,676.1953125000000000,4.0933270454406740,54.0707588195800800,53,100,89,78,81,15350,2147761088,2147421220,2148006665,2147870784,2147643876,2147061074,2148261942,2147196434,613,4,13,8831
1340578133,5808,984.2199707031250000,48.5923385620117200,677.9660034179688000,4.0346889495849610,53.9647789001464840,52,98,88,79,82,15350,2147760987,2147421650,2148008146,2147873252,2147639286,2147056301,2148262921,2147196681,40,4,13,40021
1340581733,5809,986.4199829101562000,48.6211395263671900,678.0322875976562000,4.0324940681457520,53.9625282287597660,53,98,90,80,82,15348,2147759414,2147421522,2148007561,2147875849,2147642285,2147057920,2148265252,2147193344,388,4,13,17620
1340585333,5805,996.6699829101562000,48.2598800659179700,677.6956176757812000,4.0436458587646480,54.0077896118164060,52,98,89,79,83,15349,2147760630,2147419154,2148009334,2147876580,2147640969,2147059776,2148265115,2147201161,641,4,13,43213
1340588933,5808,1000.0800170898438000,48.4623908996582000,676.8737792968750000,4.0708599090576170,53.9666404724121100,53,99,87,80,83,15347,2147763254,2147421266,2148006025,2147874834,2147643995,2147059328,2148264173,2147198107,3112,4,13,25211
1340592533,5811,1002.9799804687500000,48.2310600280761700,676.3052978515625000,4.0896840095520020,53.9959716796875000,53,99,88,78,82,15350,2147758848,2147421184,2148010057,2147872457,2147642852,2147057947,2148262034,2147199460,83,5,13,16400
1340596133,5810,1006.2700195312500000,47.2275314331054700,674.6873168945312000,4.1432337760925290,54.1132011413574200,53,99,89,78,81,15349,2147757933,2147419254,2148009910,2147876041,2147643620,2147063570,2148261037,2147198052,228,4,13,55629
1340599733,5808,1013.7299804687500000,46.4766006469726560,672.9575195312500000,4.2004528045654300,54.1982383728027340,52,97,86,78,82,15348,2147757129,2147420608,2148008365,2147872877,2147642267,2147064064,2148259556,2147199478,107,4,14,59480
1340603333,5811,1013.2000122070312000,45.9489593505859400,672.7457885742188000,4.2074508666992190,54.2714118957519500,52,99,89,79,83,15348,2147761938,2147418825,2148003894,2147874706,2147645421,2147066907,2148263542,2147196973,451,4,13,19871
1340606933,5810,1016.0100097656250000,45.8812599182128900,671.9202880859375000,4.2347412109375000,54.2718696594238300,53,102,88,79,82,15346,2147758134,2147419776,2148008658,2147877622,2147647460,2147060708,2148261385,2147198930,3576,4,13,53559
1340610533,5809,1001.6599731445312000,46.2142982482910160,673.4047241210938000,4.1856632232666020,54.2423591613769500,53,99,88,79,83,15344,2147761371,2147420955,2148009700,2147876672,2147642112,2147059136,2148260041,2147198070,3568,4,14,30052
1340614133,5803,997.7600097656250000,46.8364601135253900,675.0601196289062000,4.1308979988098145,54.1753196716308600,53,102,90,79,83,15346,2147760146,2147423771,2148007268,2147875428,2147642825,2147061430,2148259675,2147200256,213,4,13,35577
1340617733,5808,1008.8599853515625000,47.1940803527832000,674.8475952148438000,4.1379299163818360,54.1198501586914060,52,99,90,79,83,15344,2147760539,2147423881,2148007798,2147873673,2147641270,2147059968,2148258075,2147201654,3517,4,13,52482
1340621333,5808,1007.6300048828125000,47.2698287963867200,674.6398925781250000,4.1448020935058590,54.1090507507324200,53,98,88,80,82,15345,2147760576,2147422902,2148004114,2147873609,2147644416,2147061760,2148261851,2147200274,50,4,13,9203
1340624933,5812,995.8900146484375000,47.4721107482910160,676.8872070312500000,4.0704169273376465,54.1057701110839840,53,101,90,79,81,15341,2147754724,2147421613,2148011227,2147875136,2147645184,2147060013,2148263744,2147198208,3501,4,13,28001
1340628533,5807,1005.4600219726562000,48.0994987487793000,676.3458862304688000,4.0883388519287110,54.0141105651855500,52,99,92,79,82,15345,2147759259,2147421622,2148006756,2147872905,2147644352,2147061238,2148258166,2147197668,3444,4,14,46118
1340632133,5809,1006.7999877929688000,47.4942207336425800,675.0371093750000000,4.1316590309143070,54.0846595764160160,53,99,86,79,82,15343,2147760265,2147422912,2148008475,2147873435,2147643456,2147064182,2148261403,2147194221,3595,4,14,47501
1340635733,5807,1005.6500244140625000,47.4116287231445300,676.0372924804688000,4.0985550880432130,54.1046981811523440,52,100,89,77,84,15344,2147760265,2147423250,2148009170,2147874240,2147644342,2147061348,2148262784,2147198756,3592,4,14,18069
1340639333,5811,1017.9199829101562000,47.0337486267089840,674.1398925781250000,4.1613450050354000,54.1373405456543000,53,99,85,81,82,15343,2147762130,2147424694,2148008612,2147875931,2147639881,2147058852,2148257444,2147198674,3424,4,13,32323
1340642933,5809,1018.3099975585938000,46.3966903686523440,673.2255859375000000,4.1915841102600100,54.2159194946289060,53,99,88,81,83,15343,2147760064,2147421339,2148007405,2147872768,2147643739,2147061860,2148261037,2147201298,66,4,13,18314
1340646533,5807,1014.8599853515625000,46.0108909606933600,673.5789184570312000,4.1798992156982420,54.2734603881835940,53,100,87,79,82,15339,2147754688,2147420461,2148006784,2147873929,2147643254,2147058322,2148263908,2147198390,3570,4,14,62125
1340650133,5811,1010.7999877929688000,46.1387901306152340,673.8822021484375000,4.1698679924011230,54.2570915222168000,53,99,87,80,82,15342,2147759771,2147421513,2148008960,2147875309,2147643053,2147058313,2148261147,2147196635,228,4,13,65408
1340653733,5811,1012.8099975585938000,46.4040107727050800,674.5073242187500000,4.1491889953613280,54.2320594787597660,52,98,89,79,82,15336,2147754587,2147423780,2148008941,2147874971,2147640109,2147055762,2148264338,2147198025,328,4,13,40286
1340653856,5810,1013.2500000000000000,46.3412895202636700,674.4324951171875000,4.1516652107238770,54.2350692749023440,52,99,87,80,81,15380,2147760758,2147423570,2148010797,2147875382,2147644352,2147060379,2148262098,2147196059,211,4,13,36275
